When you browse on this site, cookies collect data to enhance your experience and personalize the content and advertising you see.
Visit our Privacy Policy to learn more. By continuing to use the site, you agree to this use of cookies and data.
  • en France
  • Liste des pays
  • À 7 jours
  • Température de l'eau
  • Carte météo
  • Widgets météo
  • user-avatar
    Se connecter

    Météo par heure à Namur

    Ce jour, 19 Septembre, Jeudi

    Heure Température Précipitation Vent Pression Humidité
    00:00 +8°C° 0 mm 2 m/s 761 mmHg 94%
    01:00 +7°C° 0 mm 2 m/s 761 mmHg 94%
    02:00 +7°C° 0 mm 2 m/s 760 mmHg 94%
    03:00 +7°C° 0 mm 2 m/s 760 mmHg 95%
    04:00 +7°C° 0 mm 2 m/s 760 mmHg 95%
    05:00 +7°C° 0 mm 2 m/s 761 mmHg 95%
    06:00 +7°C° 0 mm 2 m/s 761 mmHg 96%
    07:00 +9°C° 0 mm 2 m/s 761 mmHg 85%
    08:00 +11°C° 0 mm 3 m/s 762 mmHg 73%
    09:00 +13°C° 0 mm 4 m/s 762 mmHg 62%
    10:00 +14°C° 0 mm 4 m/s 762 mmHg 57%
    11:00 +15°C° 0 mm 4 m/s 762 mmHg 53%
    12:00 +17°C° 0 mm 4 m/s 762 mmHg 49%
    13:00 +17°C° 0 mm 4 m/s 762 mmHg 48%
    14:00 +17°C° 0 mm 4 m/s 761 mmHg 48%
    15:00 +17°C° 0 mm 4 m/s 761 mmHg 48%
    16:00 +15°C° 0 mm 4 m/s 761 mmHg 55%
    17:00 +13°C° 0 mm 3 m/s 761 mmHg 62%
    18:00 +11°C° 0 mm 3 m/s 761 mmHg 69%
    19:00 +10°C° 0 mm 3 m/s 761 mmHg 72%
    20:00 +9°C° 0 mm 3 m/s 761 mmHg 76%
    21:00 +8°C° 0 mm 2 m/s 761 mmHg 79%
    22:00 +8°C° 0 mm 2 m/s 761 mmHg 79%
    23:00 +8°C° 0 mm 2 m/s 761 mmHg 80%

    Demain, 20 Septembre, Vendredi

    Heure Température Précipitation Vent Pression Humidité
    00:00 +7°C° 0 mm 2 m/s 761 mmHg 81%
    01:00 +7°C° 0 mm 2 m/s 761 mmHg 80%
    02:00 +7°C° 0 mm 2 m/s 761 mmHg 80%
    03:00 +6°C° 0 mm 2 m/s 760 mmHg 80%
    04:00 +6°C° 0 mm 2 m/s 760 mmHg 79%
    05:00 +6°C° 0 mm 2 m/s 760 mmHg 79%
    06:00 +6°C° 0 mm 2 m/s 760 mmHg 79%
    07:00 +9°C° 0 mm 2 m/s 760 mmHg 69%
    08:00 +12°C° 0 mm 3 m/s 760 mmHg 58%
    09:00 +14°C° 0 mm 4 m/s 760 mmHg 48%
    10:00 +17°C° 0 mm 4 m/s 760 mmHg 44%
    11:00 +19°C° 0 mm 4 m/s 759 mmHg 41%
    12:00 +20°C° 0 mm 4 m/s 759 mmHg 37%
    13:00 +20°C° 0 mm 5 m/s 758 mmHg 38%
    14:00 +21°C° 0 mm 5 m/s 757 mmHg 39%
    15:00 +21°C° 0 mm 5 m/s 757 mmHg 40%
    16:00 +19°C° 0 mm 5 m/s 757 mmHg 47%
    17:00 +17°C° 0 mm 4 m/s 756 mmHg 53%
    18:00 +14°C° 0 mm 4 m/s 756 mmHg 59%
    19:00 +13°C° 0 mm 4 m/s 756 mmHg 60%
    20:00 +12°C° 0 mm 3 m/s 756 mmHg 61%
    21:00 +11°C° 0 mm 3 m/s 756 mmHg 62%
    22:00 +11°C° 0 mm 3 m/s 755 mmHg 62%
    23:00 +10°C° 0 mm 3 m/s 755 mmHg 61%

    Après-demain, 21 Septembre, Samedi

    Heure Température Précipitation Vent Pression Humidité
    00:00 +10°C° 0 mm 3 m/s 755 mmHg 60%
    01:00 +10°C° 0 mm 3 m/s 754 mmHg 61%
    02:00 +10°C° 0 mm 3 m/s 754 mmHg 61%
    03:00 +9°C° 0 mm 3 m/s 753 mmHg 62%
    04:00 +9°C° 0 mm 3 m/s 753 mmHg 60%
    05:00 +10°C° 0 mm 3 m/s 753 mmHg 59%
    06:00 +10°C° 0 mm 3 m/s 752 mmHg 58%
    07:00 +12°C° 0 mm 4 m/s 752 mmHg 52%
    08:00 +15°C° 0 mm 4 m/s 752 mmHg 47%
    09:00 +19°C° 0 mm 5 m/s 752 mmHg 42%
    10:00 +20°C° 0 mm 5 m/s 752 mmHg 42%
    11:00 +22°C° 0 mm 5 m/s 751 mmHg 43%
    12:00 +25°C° 0 mm 5 m/s 751 mmHg 43%
    13:00 +25°C° 0 mm 4 m/s 750 mmHg 44%
    14:00 +26°C° 0 mm 4 m/s 750 mmHg 45%
    15:00 +26°C° 0 mm 4 m/s 749 mmHg 46%
    16:00 +23°C° 0 mm 4 m/s 749 mmHg 51%
    17:00 +21°C° 0 mm 4 m/s 749 mmHg 56%
    18:00 +19°C° 0 mm 4 m/s 749 mmHg 61%
    19:00 +18°C° 0 mm 4 m/s 748 mmHg 57%
    20:00 +17°C° 0 mm 5 m/s 748 mmHg 54%
    21:00 +17°C° 0 mm 5 m/s 748 mmHg 51%
    22:00 +16°C° 0 mm 5 m/s 748 mmHg 52%
    23:00 +16°C° 0 mm 5 m/s 748 mmHg 53%

    22 Septembre, Dimanche

    Heure Température Précipitation Vent Pression Humidité
    00:00 +17°C° 0 mm 4 m/s 747 mmHg 54%
    01:00 +17°C° 0 mm 4 m/s 747 mmHg 56%
    02:00 +17°C° 0 mm 4 m/s 747 mmHg 57%
    03:00 +17°C° 0 mm 4 m/s 747 mmHg 59%
    04:00 +17°C° 0 mm 4 m/s 747 mmHg 61%
    05:00 +16°C° 0 mm 5 m/s 747 mmHg 63%
    06:00 +16°C° 0 mm 5 m/s 747 mmHg 66%
    07:00 +19°C° 0 mm 5 m/s 746 mmHg 64%
    08:00 +21°C° 0 mm 5 m/s 746 mmHg 62%
    09:00 +22°C° 0 mm 5 m/s 746 mmHg 60%
    10:00 +23°C° 0 mm 5 m/s 746 mmHg 60%
    11:00 +24°C° 0 mm 6 m/s 746 mmHg 59%
    12:00 +24°C° 0 mm 6 m/s 745 mmHg 58%
    13:00 +25°C° 0.1 mm 5 m/s 745 mmHg 60%
    14:00 +25°C° 0.1 mm 4 m/s 745 mmHg 62%
    15:00 +25°C° 0.1 mm 4 m/s 744 mmHg 64%
    16:00 +22°C° 1.1 mm 4 m/s 744 mmHg 71%
    17:00 +20°C° 1.1 mm 4 m/s 744 mmHg 79%
    18:00 +19°C° 1.1 mm 4 m/s 744 mmHg 86%
    19:00 +18°C° 1.2 mm 4 m/s 745 mmHg 89%
    20:00 +17°C° 1.2 mm 4 m/s 745 mmHg 91%
    21:00 +15°C° 1.2 mm 4 m/s 745 mmHg 93%
    22:00 +15°C° 2.2 mm 4 m/s 746 mmHg 93%
    23:00 +14°C° 2.2 mm 5 m/s 746 mmHg 94%

    23 Septembre, Lundi

    Heure Température Précipitation Vent Pression Humidité
    00:00 +14°C° 2.2 mm 5 m/s 747 mmHg 94%
    01:00 +14°C° 1.7 mm 4 m/s 747 mmHg 95%
    02:00 +13°C° 1.7 mm 3 m/s 747 mmHg 96%
    03:00 +14°C° 1.7 mm 2 m/s 747 mmHg 96%
    04:00 +13°C° 0.1 mm 3 m/s 747 mmHg 95%
    05:00 +13°C° 0.1 mm 3 m/s 748 mmHg 95%
    06:00 +13°C° 0.1 mm 4 m/s 748 mmHg 94%
    07:00 +14°C° 0 mm 4 m/s 748 mmHg 92%
    08:00 +14°C° 0 mm 5 m/s 749 mmHg 89%
    09:00 +15°C° 0 mm 5 m/s 749 mmHg 87%
    10:00 +15°C° 0.1 mm 5 m/s 749 mmHg 83%
    11:00 +16°C° 0.1 mm 5 m/s 749 mmHg 79%
    12:00 +17°C° 0.1 mm 6 m/s 750 mmHg 76%
    13:00 +19°C° 0.1 mm 5 m/s 749 mmHg 71%
    14:00 +19°C° 0.1 mm 5 m/s 749 mmHg 66%
    15:00 +20°C° 0.1 mm 5 m/s 749 mmHg 61%
    16:00 +18°C° 0 mm 4 m/s 749 mmHg 67%
    17:00 +17°C° 0 mm 3 m/s 749 mmHg 73%
    18:00 +14°C° 0 mm 3 m/s 750 mmHg 79%
    19:00 +14°C° 0 mm 2 m/s 750 mmHg 81%
    20:00 +14°C° 0 mm 2 m/s 750 mmHg 82%
    21:00 +13°C° 0 mm 2 m/s 750 mmHg 84%
    22:00 +13°C° 0 mm 2 m/s 750 mmHg 85%
    23:00 +12°C° 0 mm 2 m/s 750 mmHg 85%

    24 Septembre, Mardi

    Heure Température Précipitation Vent Pression Humidité
    00:00 +12°C° 0 mm 2 m/s 750 mmHg 86%
    01:00 +11°C° 0 mm 3 m/s 750 mmHg 86%
    02:00 +11°C° 0 mm 3 m/s 750 mmHg 86%
    03:00 +11°C° 0 mm 3 m/s 750 mmHg 87%
    04:00 +11°C° 0 mm 3 m/s 749 mmHg 87%
    05:00 +11°C° 0 mm 4 m/s 749 mmHg 87%
    06:00 +11°C° 0 mm 4 m/s 749 mmHg 88%
    07:00 +13°C° 0 mm 4 m/s 748 mmHg 81%
    08:00 +15°C° 0 mm 5 m/s 748 mmHg 75%
    09:00 +16°C° 0 mm 5 m/s 748 mmHg 68%
    10:00 +16°C° 0.1 mm 5 m/s 747 mmHg 71%
    11:00 +16°C° 0.1 mm 5 m/s 747 mmHg 73%
    12:00 +16°C° 0.1 mm 5 m/s 747 mmHg 76%
    13:00 +15°C° 0.9 mm 6 m/s 746 mmHg 81%
    14:00 +14°C° 0.9 mm 7 m/s 745 mmHg 86%
    15:00 +13°C° 0.9 mm 8 m/s 745 mmHg 91%
    16:00 +14°C° 0.1 mm 7 m/s 745 mmHg 91%
    17:00 +15°C° 0.1 mm 7 m/s 744 mmHg 91%
    18:00 +15°C° 0.1 mm 7 m/s 744 mmHg 91%
    19:00 +15°C° 0.3 mm 6 m/s 744 mmHg 91%
    20:00 +15°C° 0.3 mm 6 m/s 744 mmHg 92%
    21:00 +15°C° 0.3 mm 5 m/s 744 mmHg 93%
    22:00 +14°C° 0.1 mm 5 m/s 744 mmHg 92%
    23:00 +13°C° 0.1 mm 4 m/s 744 mmHg 92%
    Voir plus